Regional Weather Roundup
Issued by NWS

Home | Current Version | Previous Version | Graphics & Text | Print | Product List | Glossary On
Versions: 1 2 3 4 5 6 7 8 9 10 11 12 13 14 15 16 17 18 19 20 21 22 23 24 25 26
513
ASUS45 KCYS 220710
RWRWY

WYOMING REGIONAL WEATHER ROUNDUP
NATIONAL WEATHER SERVICE CHEYENNE WY
100 AM MDT FRI MAY 22 2015

NOTE:  "FAIR" INDICATES FEW OR NO CLOUDS BELOW 12,000 FEET
WITH NO SIGNIFICANT WEATHER AND/OR OBSTRUCTIONS TO VISIBILITY.

WYZ001-220800-
YELLOWSTONE NATIONAL PARK

CITY           SKY/WX    TMP DP  RH WIND       PRES   REMARKS
LK YELLOWSTONE   N/A     32  30  92 CALM      30.09S
W YELLOWSTONE  NOT AVBL

$$
WYZ002>013-054>058-071-098>099-220800-
NORTHERN WYOMING

CITY           SKY/WX    TMP DP  RH WIND       PRES   REMARKS
JACKSON        CLOUDY    45  39  81 CALM      30.02F
CODY           FAIR      48  43  81 SW12      30.00F
GREYBULL       LGT RAIN  57  48  72 E3        29.97R
WORLAND        FAIR      50  45  83 E5        29.96F
SHERIDAN       FAIR      49  42  77 SE14      30.00S
BUFFALO        FAIR      46  42  86 S9        30.04F
GILLETTE       FAIR      47  42  83 SE7       30.05F
HULETT         FAIR      48  37  66 S9        30.10F
NEWCASTLE      CLOUDY    50  41  71 SE16      30.10F

$$
WYZ014>020-022>026-101>103-220800-
CENTRAL WYOMING

CITY           SKY/WX    TMP DP  RH WIND       PRES   REMARKS
BIG PINEY      CLOUDY    42  40  92 CALM      30.05F
PINEDALE       CLOUDY    43  41  93 W5        30.06S
DUBOIS         RAIN      39  37  93 E3        30.06F
LANDER         CLOUDY    49  42  77 E5        30.00F
RIVERTON       CLOUDY    48  44  86 N3        30.02S
CASPER         MOCLDY    45  42  89 E7        30.03F
DOUGLAS        CLOUDY    49  44  83 SE18      30.04F

$$
WYZ021-027>030-104>119-220800-
SOUTHERN WYOMING

CITY           SKY/WX    TMP DP  RH WIND       PRES   REMARKS
EVANSTON       FAIR      41  37  86 E7        30.01S
KEMMERER       CLOUDY    41  37  87 NE7       30.02F
FORT BRIDGER   PTSUNNY   41  41 100 SE8       30.06S
ROCK SPRINGS   LGT RAIN  44  40  85 SE10      30.04R
DIXON          CLOUDY    48  43  83 NE8       30.03R
RAWLINS        CLOUDY    44  41  89 S6        30.05R
SARATOGA       CLOUDY    43  39  87 MISG      30.06S
LARAMIE        CLOUDY    42  40  92 SE21      30.05S
CHEYENNE       CLOUDY    44  42  93 S14G24    30.08F FOG
TORRINGTON     MOCLDY    50  44  80 SE10      30.08S
PINE BLUFFS    CLOUDY    45  43  93 S17       30.11R

$$



USA.gov is the U.S. government's official web portal to all federal, state and local government web resources and services.